Location: Newark
(48.1500°N, 2.9667°W)
Time: 06:30:59
(UTC+00:00)

A-11 Canister half - Pass Details

Date: 29 January 2020
Orbit: 1517 x 1683 km, 47.2° (Epoch: 27 February)

Event Time Altitude Azimuth Distance (km) Brightness Sun altitude
Exits shadow 05:34:50 29° 250° (WSW) 2,492 9.6 -21.6°
Maximum altitude 05:37:20 33° 222° (SW) 2,324 9.6 -21.2°
Drops below altitude 10° 05:45:19 10° 162° (SSE) 3,705 11.3 -19.9°
Sets 05:48:46 0° 154° (SSE) 4,704 12.0 -19.3°
